GW4286 Weather Reports


time (UTC)temp
C
wind
direction
speed
KPH
gust
KPH
rain 1hr
cm
rain 24hr
cm
rain mn
cm
humidity
%
barometer
mb
20260508141523 8 265 9.7 24.1 0.00 0.30 0.00 83 1006.6
20260508140023 8 199 9.7 22.5 0.00 0.33 0.00 82 1006.5
20260508134524 8 261 8.0 22.5 0.00 0.33 0.00 81 1006.5
20260508133019 8 313 9.7 20.9 0.00 0.41 0.00 82 1006.5
20260508131530 8 304 9.7 20.9 0.00 0.51 0.00 82 1006.4
20260508130019 8 329 8.0 19.3 0.00 0.58 0.00 83 1006.3
20260508124524 8 265 9.7 19.3 0.00 0.74 0.00 82 1006.2
20260508123030 8 243 9.7 17.7 0.00 0.89 0.00 82 1006.2
20260508121512 8 317 6.4 25.7 0.00 1.07 0.00 81 1006.1
20260508120016 8 263 8.0 16.1 0.00 1.27 0.00 82 1005.9
20260508114521 7 252 6.4 16.1 0.00 1.42 0.00 83 1005.8
20260508113029 7 293 3.2 12.9 0.00 1.42 0.00 84 1005.8
20260508111539 7 319 4.8 14.5 0.00 1.42 0.00 84 1005.8
20260508110012 7 299 8.0 17.7 0.00 1.42 0.00 85 1005.7
20260508104517 7 294 6.4 11.3 0.00 1.42 0.00 86 1005.5
20260508103029 6 333 4.8 16.1 0.00 1.42 0.00 87 1005.4
20260508101534 6 302 6.4 17.7 0.00 1.42 0.00 87 1005.2
20260508100029 6 317 9.7 17.7 0.00 1.42 0.00 88 1005.2
20260508094526 5 275 9.7 17.7 0.00 1.42 0.00 90 1004.9
20260508093020 5 302 12.9 17.7 0.00 1.42 0.00 92 1004.9
20260508091524 5 315 4.8 12.9 0.00 1.42 0.00 92 1004.7
20260508090008 5 325 4.8 9.7 0.00 1.42 0.00 93 1004.5
20260508084510 5 331 3.2 8.0 0.00 1.42 0.00 93 1004.2
20260508083016 5 277 9.7 19.3 0.00 1.42 0.00 93 1004.3
20260508081518 6 298 12.9 16.1 0.00 1.42 0.00 94 1004.3
20260508080004 6 319 11.3 17.7 0.00 1.42 0.00 95 1004.4
20260508074505 6 290 6.4 11.3 0.00 1.42 0.00 95 1004.5
20260508073016 6 338 3.2 8.0 0.00 1.42 0.00 95 1004.4
20260508071522 6 338 3.2 8.0 0.00 1.42 0.00 95 1004.4
20260508070022 6 338 3.2 8.0 0.00 1.45 0.00 95 1004.4
20260508064535 6 360 3.2 6.4 0.00 1.47 0.00 95 1004.4
20260508063010 6 360 4.8 8.0 0.00 1.50 0.00 96 1004.5
20260508061517 6 333 4.8 8.0 0.00 1.55 0.00 96 1004.4
20260508060021 6 333 3.2 6.4 0.00 1.63 0.00 96 1004.6
20260508054522 6 333 3.2 8.0 0.00 1.68 0.00 96 1004.6
20260508053028 6 355 4.8 12.9 0.00 1.70 0.00 96 1004.4
20260508051508 6 333 8.0 14.5 0.00 1.78 0.00 96 1004.2
20260508050020 6 306 6.4 12.9 0.00 1.88 0.00 96 1004.3
20260508044520 6 316 6.4 14.5 0.00 2.01 0.00 96 1004.5
20260508043023 6 310 6.4 14.5 0.00 2.06 0.00 96 1004.7
20260508041527 5 271 3.2 14.5 0.00 2.06 0.00 95 1004.8
20260508040017 5 232 1.6 4.8 0.00 2.06 0.00 95 1005.2
20260508034515 5 232 4.8 8.0 0.00 2.06 0.00 95 1005.2
20260508033024 5 234 8.0 11.3 0.00 2.06 0.00 95 1005.1
20260508031529 5 202 4.8 9.7 0.00 2.06 0.00 94 1005.0
20260508030026 5 201 4.8 9.7 0.00 2.06 0.00 95 1004.8
20260508024540 5 201 4.8 6.4 0.00 2.06 2.06 94 1004.5
20260508023026 5 201 1.6 6.4 0.00 2.06 2.06 93 1004.4
20260508021522 5 201 3.2 6.4 0.00 2.06 2.06 93 1004.7
20260508020024 6 203 3.2 6.4 0.00 2.06 2.06 93 1005.0
20260508014543 6 203 1.6 8.0 0.00 2.06 2.06 93 1005.2
20260508013028 6 196 3.2 6.4 0.00 2.06 2.06 93 1005.2
20260508011519 6 196 3.2 6.4 0.00 2.06 2.06 93 1005.2
20260508010028 6 196 1.6 6.4 0.00 2.06 2.06 92 1005.1
20260508004528 6 196 4.8 8.0 0.00 2.06 2.06 92 1004.8
20260508003050 6 219 3.2 6.4 0.00 2.06 2.06 91 1004.8
20260508001528 7 219 4.8 6.4 0.00 2.06 2.06 90 1004.9
20260508000003 7 219 3.2 6.4 0.00 2.06 2.06 89 1004.4
20260507234504 7 219 1.6 6.4 0.00 2.06 2.06 88 1004.5
20260507233006 7 207 3.2 6.4 0.00 2.06 2.06 87 1004.3
20260507231507 8 207 4.8 6.4 0.00 2.06 2.06 86 1004.2
20260507230016 8 207 4.8 9.7 0.00 2.06 2.06 86 1004.3
20260507224506 9 240 6.4 17.7 0.00 2.06 2.06 86 1004.5
20260507223004 9 198 4.8 9.7 0.00 2.06 2.06 87 1004.6
20260507221507 9 244 4.8 8.0 0.00 2.06 2.06 87 1004.3
20260507220012 9 238 4.8 8.0 0.00 2.06 2.06 88 1004.2
20260507214517 9 226 6.4 14.5 0.00 2.06 2.06 90 1004.3
20260507213003 8 218 9.7 16.1 0.00 2.06 2.06 91 1004.5
20260507211504 8 211 9.7 16.1 0.00 2.06 2.06 93 1004.6
20260507210031 8 218 9.7 14.5 0.00 2.06 2.06 93 1004.4
20260507204514 8 225 11.3 16.1 0.00 2.06 2.06 94 1004.4
20260507203030 8 226 12.9 19.3 0.00 2.06 2.06 95 1004.3
20260507201503 8 229 9.7 16.1 0.00 2.06 2.06 97 1004.0
20260507200004 8 225 11.3 16.1 0.00 2.06 2.06 97 1004.0
20260507194510 8 225 11.3 17.7 0.00 2.06 2.06 97 1004.1
20260507193012 8 234 9.7 16.1 0.00 2.06 2.06 98 1004.3
20260507191528 8 231 11.3 14.5 0.00 2.06 2.06 99 1004.5
20260507190023 7 241 11.3 16.1 0.00 2.06 2.06 98 1004.4
20260507184512 8 236 8.0 14.5 0.00 2.06 2.06 99 1004.2
20260507183011 8 244 6.4 12.9 0.00 2.06 2.06 100 1004.1
20260507181516 7 237 8.0 12.9 0.00 2.06 2.06 100 1004.3
20260507180019 8 242 6.4 12.9 0.00 2.06 2.06 100 1004.2
20260507174523 8 288 4.8 12.9 0.00 2.06 2.06 100 1004.0
20260507173006 7 277 3.2 14.5 0.00 2.06 2.06 100 1004.0
20260507171513 8 275 6.4 14.5 0.00 2.06 2.06 100 1004.3
20260507170017 8 293 6.4 16.1 0.00 2.06 2.06 100 1004.2
20260507164522 7 303 4.8 12.9 0.00 2.06 2.06 100 1004.3
20260507163025 7 317 9.7 16.1 0.03 2.06 2.06 100 1004.6
20260507161509 7 309 11.3 16.1 0.05 2.06 2.06 100 1004.6
20260507160012 7 291 6.4 12.9 0.08 2.06 2.06 100 1005.0
20260507154519 6 263 3.2 16.1 0.20 2.06 2.06 100 1005.3
20260507153028 7 220 6.4 12.9 0.25 2.03 2.03 100 1005.1
20260507151526 7 240 4.8 8.0 0.25 2.01 2.01 100 1004.4
20260507150010 7 221 1.6 8.0 0.20 1.96 1.96 100 1004.4
20260507144507 7 203 4.8 9.7 0.08 1.83 1.83 100 1005.0
20260507143005 7 236 6.4 12.9 0.10 1.78 1.78 100 1004.8